Location: Observatory Point
(48.1504°N, 123.6376°W)
Time: 22:58:42
(UTC-08:00)

OTV 5 (USA 277) - Visible Passes

Search period start: 20 January 2018 00:00
Search period end: 30 January 2018 00:00
Orbit: 404 x 417 km, 43.0° (Epoch: 07 September)

Date Brightness Start Highest point End Pass type
(mag) Time Alt. Az. Time Alt. Az. Time Alt. Az.
23 Jan ? 19:34:12 10° SW 19:34:47 13° SSW 19:34:47 13° SSW visible
24 Jan ? 18:43:37 10° SSW 18:45:57 18° SSE 18:46:14 17° SSE visible
25 Jan ? 17:53:17 10° S 17:55:04 14° SSE 17:56:51 10° ESE visible
25 Jan ? 19:28:47 10° SW 19:30:25 22° SSW 19:30:25 22° SSW visible
26 Jan ? 18:37:57 10° SW 18:40:49 26° SSE 18:41:49 22° SE visible
27 Jan ? 17:47:12 10° SW 17:49:53 22° SSE 17:52:34 10° ESE visible
27 Jan ? 19:23:39 10° WSW 19:25:57 29° SSW 19:25:57 29° SSW visible
28 Jan ? 18:32:41 10° WSW 18:35:46 33° S 18:37:20 21° SE visible
28 Jan ? 20:09:44 10° WSW 20:10:05 12° WSW 20:10:05 12° WSW visible
29 Jan ? 17:41:48 10° SW 17:44:48 30° S 17:47:48 10° ESE visible
29 Jan ? 19:18:41 10° WSW 19:21:29 30° SSW 19:21:29 30° SSW visible
